User: anonymous
Location: NJAA Observatory
(40.6819°N, 74.8979°W)
Time: 16:29:40
(UTC-04:00)
Language:

Cosmos 1461 - Orbit

View from above orbital plane
View from above orbital plane
View from above satellite
View from above satellite

Ground track
Ground track

The orbit data is extracted from the following two-line orbital elements,

1 14064U 83044A   14208.84183302  .00001203  00000-0  13443-3 0  5729
2 14064 065.0046 301.7685 0094082 104.3221 036.8335 14.88729767565906
Epoch (UTC): 27 July 2014 20:12:14
Eccentricity: 0.0094082
inclination: 65.0046°
perigee height: 536 km
apogee height: 667 km
right ascension of ascending node: 301.7685°
argument of perigee: 104.3221°
revolutions per day: 14.88729767
mean anomaly at epoch: 36.8335°
orbit number at epoch: 56590

The dashed part of the orbit path shows where the satellite is in the earth's shadow,  

DLR